EW6920 Weather Reports


time (UTC)temp
C
wind
direction
speed
KPH
gust
KPH
rain 1hr
cm
rain 24hr
cm
rain mn
cm
humidity
%
barometer
mb
20260507200047 8 205 8.0 19.3 0.00 0.00 0.00 45 1007.6
20260507194546 7 265 14.5 25.7 0.00 0.00 0.00 52 1007.8
20260507193054 7 284 14.5 24.1 0.00 0.00 0.00 47 1007.9
20260507191544 7 303 14.5 22.5 0.00 0.00 0.00 47 1007.9
20260507190042 8 310 16.1 24.1 0.00 0.00 0.00 48 1007.8
20260507184549 7 263 16.1 25.7 0.00 0.00 0.00 48 1007.9
20260507183046 7 261 16.1 27.4 0.00 0.00 0.00 48 1008.0
20260507181545 7 309 12.9 27.4 0.00 0.00 0.00 45 1008.0
20260507180044 7 276 16.1 25.7 0.00 0.00 0.00 51 1008.2
20260507174602 6 338 6.4 14.5 0.00 0.00 0.00 51 1008.3
20260507173046 6 269 8.0 30.6 0.00 0.00 0.00 51 1008.5
20260507171600 6 25 8.0 16.1 0.00 0.00 0.00 48 1008.4
20260507170046 6 317 16.1 24.1 0.00 0.00 0.00 53 1008.8
20260507164551 6 267 19.3 29.0 0.00 0.00 0.00 56 1008.8
20260507163044 6 252 11.3 22.5 0.00 0.00 0.00 50 1008.9
20260507161547 6 266 12.9 22.5 0.00 0.00 0.00 51 1008.9
20260507160111 6 287 16.1 32.2 0.00 0.00 0.00 49 1009.1
20260507154546 5 294 12.9 19.3 0.00 0.00 0.00 53 1009.2
20260507153041 6 302 14.5 22.5 0.00 0.00 0.00 57 1009.2
20260507151553 5 248 14.5 22.5 0.00 0.00 0.00 57 1009.2
20260507150047 5 315 6.4 24.1 0.00 0.00 0.00 55 1009.3
20260507144545 5 277 16.1 25.7 0.00 0.00 0.00 59 1009.4
20260507143044 4 281 16.1 32.2 0.00 0.00 0.00 66 1009.4
20260507141542 4 287 11.3 19.3 0.00 0.00 0.00 68 1009.4
20260507140047 3 243 3.2 19.3 0.00 0.00 0.00 72 1009.6
20260507134546 2 265 8.0 19.3 0.00 0.00 0.00 77 1009.7
20260507133046 2 262 11.3 17.7 0.00 0.00 0.00 78 1009.7
20260507131610 2 271 11.3 17.7 0.00 0.00 0.00 79 1009.7
20260507130043 2 257 11.3 16.1 0.00 0.00 0.00 77 1009.9
20260507124552 1 275 9.7 16.1 0.00 0.00 0.00 77 1009.7
20260507123047 1 292 9.7 22.5 0.00 0.00 0.00 77 1009.8
20260507121545 2 297 8.0 14.5 0.00 0.00 0.00 75 1009.8
20260507120045 2 288 8.0 14.5 0.00 0.00 0.00 74 1009.8
20260507114541 1 288 6.4 11.3 0.00 0.00 0.00 75 1009.8
20260507113107 1 264 8.0 12.9 0.00 0.00 0.00 74 1009.6
20260507111546 1 265 6.4 12.9 0.00 0.00 0.00 75 1009.5
20260507110045 1 259 6.4 14.5 0.00 0.00 0.00 76 1009.6
20260507104557 1 275 8.0 14.5 0.00 0.00 0.00 75 1009.5
20260507103044 1 263 8.0 12.9 0.00 0.00 0.00 76 1009.5
20260507101552 1 257 6.4 11.3 0.00 0.00 0.00 74 1009.4
20260507100056 1 276 4.8 11.3 0.00 0.00 0.00 74 1009.4
20260507094550 1 269 4.8 11.3 0.00 0.00 0.00 74 1009.4
20260507093045 1 271 4.8 11.3 0.00 0.00 0.00 73 1009.4
20260507091548 1 281 4.8 11.3 0.00 0.00 0.00 73 1009.5
20260507090046 2 290 4.8 11.3 0.00 0.00 0.00 74 1009.6
20260507084555 2 272 4.8 14.5 0.00 0.00 0.00 74 1009.6
20260507083045 2 259 6.4 14.5 0.00 0.00 0.00 75 1009.7
20260507081545 2 276 6.4 11.3 0.00 0.00 0.00 74 1009.7
20260507080043 2 288 6.4 12.9 0.00 0.00 0.00 74 1009.7
20260507074548 2 259 4.8 11.3 0.00 0.00 0.00 74 1009.7
20260507073047 2 253 6.4 9.7 0.00 0.00 0.00 73 1009.8
20260507071548 2 238 4.8 9.7 0.00 0.00 0.00 74 1009.9
20260507070057 2 243 4.8 11.3 0.00 0.00 0.00 75 1010.1
20260507064547 2 290 6.4 11.3 0.00 0.00 0.00 73 1010.3
20260507063052 2 255 4.8 12.9 0.00 0.00 0.00 75 1010.4
20260507061541 2 265 6.4 11.3 0.00 0.00 0.00 72 1010.6
20260507060047 2 282 4.8 12.9 0.00 0.00 0.00 72 1010.7
20260507054546 2 278 8.0 16.1 0.00 0.00 0.00 72 1010.8
20260507053045 2 264 3.2 11.3 0.00 0.00 0.00 71 1010.9
20260507051544 2 252 6.4 11.3 0.00 0.00 0.00 73 1011.0
20260507044551 2 261 6.4 12.9 0.00 0.00 0.00 74 1011.1
20260507043045 2 257 4.8 9.7 0.00 0.00 0.00 75 1011.2
20260507041546 2 253 3.2 6.4 0.00 0.00 0.00 74 1011.2
20260507040049 2 234 4.8 8.0 0.00 0.00 0.00 75 1011.2
20260507034544 2 224 4.8 8.0 0.00 0.00 0.00 74 1011.3
20260507033049 2 247 4.8 6.4 0.00 0.00 0.00 74 1011.3
20260507031544 2 253 4.8 8.0 0.00 0.00 0.00 73 1011.4
20260507030046 2 263 1.6 6.4 0.00 0.00 0.00 71 1011.3
20260507024550 2 0 1.6 4.8 0.00 0.00 0.00 70 1011.4
20260507023040 2 0 0.0 4.8 0.00 0.00 0.00 68 1011.4
20260507021555 2 323 4.8 11.3 0.00 0.00 0.00 70 1011.5
20260507020053 2 308 6.4 12.9 0.00 0.00 0.00 70 1011.5
20260507014546 2 315 8.0 17.7 0.00 0.00 0.00 70 1011.4
20260507013048 2 309 11.3 19.3 0.00 0.00 0.00 69 1011.4
20260507011549 2 281 6.4 14.5 0.00 0.00 0.00 67 1011.3
20260507010047 3 328 4.8 9.7 0.00 0.00 0.00 64 1011.3
20260507004544 3 291 6.4 12.9 0.00 0.00 0.00 63 1011.2
20260507003044 3 288 6.4 16.1 0.00 0.00 0.00 64 1011.1
20260507001548 3 304 8.0 14.5 0.00 0.00 0.00 64 1011.1
20260507000048 3 305 9.7 17.7 0.00 0.00 0.00 62 1011.1
20260506234557 3 303 8.0 17.7 0.00 0.00 0.00 65 1011.1
20260506233045 3 252 9.7 20.9 0.00 0.00 0.00 64 1011.2
20260506231541 3 276 12.9 20.9 0.00 0.00 0.00 64 1011.3
20260506230043 3 323 14.5 22.5 0.00 0.00 0.00 63 1011.3
20260506224548 3 297 8.0 24.1 0.00 0.00 0.00 63 1011.3
20260506223050 3 255 12.9 25.7 0.00 0.00 0.00 63 1011.2
20260506221547 4 288 16.1 27.4 0.00 0.00 0.00 60 1011.2
20260506220045 4 264 16.1 25.7 0.00 0.00 0.00 64 1011.0
20260506214547 4 270 19.3 29.0 0.00 0.00 0.00 61 1011.1
20260506213047 4 292 9.7 25.7 0.00 0.00 0.00 60 1011.0
20260506211545 4 287 17.7 27.4 0.00 0.00 0.00 61 1011.0
20260506210054 4 269 17.7 27.4 0.00 0.00 0.00 63 1011.0
20260506204552 4 295 16.1 30.6 0.00 0.00 0.00 62 1011.1
20260506203048 3 307 14.5 29.0 0.00 0.00 0.00 62 1011.1
20260506201546 3 280 17.7 27.4 0.00 0.00 0.00 61 1011.2